Bat Cave, NC

12:44 AM EST on February 12, 2016 (GMT -0500)
Asheville Regional

Weather History for KAVL - October, 2007

Change the Weather History Date:

Tuesday, October 9, 2007

  Actual Average Record
Temperature  
Mean Temperature 70 °F 58 °F  
Max Temperature 83 °F 70 °F 85 °F (1939)
Min Temperature 56 °F 47 °F 27 °F (1889)
Degree Days  
Heating Degree Days 0 7  
Month to date heating degree days 14 53  
Since 1 July heating degree days 48 110  
Cooling Degree Days 5 0  
Month to date cooling degree days 31 7  
Year to date cooling degree days 977 859  
Growing Degree Days 20 (Base 50)    
Moisture  
Dew Point 59 °F    
Average Humidity 67    
Maximum Humidity 96    
Minimum Humidity 37    
Precipitation  
Precipitation 0.45 in 0.09 in 1.74 in (1908)
Month to date precipitation 1.36 0.91  
Year to date precipitation 27.18 36.33  
Snow  
Snow 0.00 in 0.00 in 0.00 in ()
Month to date snowfall 0.0 0.0  
Since 1 July snowfall 0.0 0.0  
Since 1 September snowfall 0.0 0.0  
Snow Depth -    
Sea Level Pressure  
Sea Level Pressure 30.01 in    
Wind  
Wind Speed 5 mph (NNW)    
Max Wind Speed 21 mph    
Max Gust Speed 23 mph    
Visibility 6 miles    
Events Fog , Rain    
T = Trace of Precipitation, MM = Missing Value Source: NWS Daily Summary

Daily Weather History Graph

Daily Weather History Graph

Search for Another Location

Airport or City:

Trip Planner

Search our weather history database for the weather conditions in past years. The results will help you decide how hot, cold, wet, or windy it might be!

Date:

Astronomy

Oct. 09, 2007 Rise Set
Actual Time 7:31 AM EDT 7:03 PM EDT
Civil Twilight 7:05 AM EDT 7:28 PM EDT
Nautical Twilight 6:36 AM EDT 7:58 PM EDT
Astronomical Twilight 6:06 AM EDT 8:27 PM EDT
Moon 6:02 AM EDT (10/9) 6:13 PM EDT (10/9)
Length of Visible Light 12h 22m
Length of Day
11h 32m
Waning Crescent, 2% of the Moon is Illuminated
Oct 9
Waning Crescent
Oct 11
New
Oct 19
First Quarter
Oct 26
Full
Nov 1
Last Quarter

Hourly Weather History & Observations

Time (EDT) Temp. Heat Index Dew Point Humidity Pressure Visibility Wind Dir Wind Speed Gust Speed Precip Events Conditions
12:54 AM 63.0 °F - 60.1 °F 90% 30.05 in 9.0 mi Calm Calm - N/A   Partly Cloudy
1:54 AM 61.0 °F - 59.0 °F 93% 30.04 in 7.0 mi Calm Calm - N/A   Partly Cloudy
2:54 AM 61.0 °F - 59.0 °F 93% 30.03 in 7.0 mi Calm Calm - N/A   Mostly Cloudy
3:14 AM 60.8 °F - 57.2 °F 88% 30.09 in 5.0 mi Calm Calm - N/A   Mostly Cloudy
3:22 AM 60.8 °F - 57.2 °F 88% 30.09 in 8.0 mi Calm Calm - N/A   Mostly Cloudy
3:54 AM 60.1 °F - 57.9 °F 93% 30.01 in 7.0 mi Calm Calm - N/A   Overcast
4:11 AM 60.8 °F - 57.2 °F 88% 30.08 in 3.0 mi Calm Calm - N/A   Scattered Clouds
4:48 AM 57.2 °F - 55.4 °F 94% 30.08 in 1.5 mi WSW 3.5 mph - N/A   Partly Cloudy
4:51 AM 57.2 °F - 55.4 °F 94% 30.08 in 1.0 mi Calm Calm - N/A   Mist
4:54 AM 57.0 °F - 55.9 °F 96% 30.01 in 1.0 mi Calm Calm - N/A   Mist
4:57 AM 57.2 °F - 55.4 °F 94% 30.08 in 1.5 mi Calm Calm - N/A   Partly Cloudy
5:01 AM 57.2 °F - 55.4 °F 94% 30.08 in 4.0 mi Calm Calm - N/A   Partly Cloudy
5:54 AM 57.9 °F - 55.9 °F 93% 30.01 in 9.0 mi Calm Calm - N/A   Clear
6:01 AM 57.2 °F - 55.4 °F 94% 30.08 in 1.2 mi South 3.5 mph - N/A   Partly Cloudy
6:03 AM 57.2 °F - 55.4 °F 94% 30.08 in 0.8 mi Calm Calm - N/A   Mist
6:12 AM 57.2 °F - 55.4 °F 94% 30.08 in 0.2 mi Calm Calm - N/A Fog Fog
6:21 AM 57.2 °F - 55.4 °F 94% 30.08 in 0.5 mi Calm Calm - N/A Fog Fog
6:38 AM 57.2 °F - 55.4 °F 94% 30.08 in 1.2 mi Calm Calm - N/A   Scattered Clouds
6:40 AM 57.2 °F - 55.4 °F 94% 30.08 in 2.0 mi Calm Calm - N/A   Partly Cloudy
6:54 AM 57.0 °F - 55.9 °F 96% 30.02 in 5.0 mi Calm Calm - N/A   Clear
7:54 AM 57.0 °F - 55.0 °F 93% 30.04 in 8.0 mi Calm Calm - N/A   Clear
8:54 AM 64.0 °F - 60.1 °F 87% 30.04 in 10.0 mi NNW 6.9 mph - N/A   Clear
9:54 AM 69.1 °F - 61.0 °F 75% 30.04 in 10.0 mi North 6.9 mph - N/A   Clear
10:54 AM 73.9 °F - 61.0 °F 64% 30.02 in 10.0 mi North 10.4 mph - N/A   Clear
11:54 AM 78.1 °F - 61.0 °F 56% 30.00 in 10.0 mi North 5.8 mph - N/A   Clear
12:54 PM 81.0 °F 81.6 °F 60.1 °F 49% 29.98 in 10.0 mi NW 8.1 mph - N/A   Clear
1:54 PM 82.0 °F 81.3 °F 54.0 °F 38% 29.95 in 10.0 mi North 6.9 mph - N/A   Clear
2:54 PM 82.0 °F 81.2 °F 53.1 °F 37% 29.91 in 10.0 mi SSE 3.5 mph - N/A   Clear
3:54 PM 78.1 °F - 60.1 °F 54% 29.91 in 10.0 mi West 3.5 mph - N/A   Overcast
4:29 PM 69.8 °F - 62.6 °F 78% 30.01 in 2.0 mi WNW 11.5 mph 21.9 mph 0.03 in Rain Rain
4:44 PM 66.2 °F - 64.4 °F 94% 30.01 in 1.2 mi NW 10.4 mph - 0.28 in Rain Heavy Rain
4:54 PM 66.9 °F - 64.0 °F 90% 29.95 in 1.8 mi NW 9.2 mph - 0.34 in Rain Heavy Rain
5:02 PM 66.2 °F - 62.6 °F 88% 29.99 in 4.0 mi NNW 8.1 mph - 0.04 in Rain Rain
5:29 PM 68.0 °F - 64.4 °F 88% 29.99 in 7.0 mi North 6.9 mph - 0.11 in Rain Light Rain
5:54 PM 68.0 °F - 64.0 °F 87% 29.95 in 7.0 mi Calm Calm - 0.11 in Rain Light Rain
6:54 PM 66.9 °F - 64.0 °F 90% 29.96 in 5.0 mi NW 5.8 mph - 0.00 in   Scattered Clouds
7:54 PM 66.0 °F - 64.0 °F 93% 29.95 in 6.0 mi NW 5.8 mph - 0.00 in Rain Light Rain
8:54 PM 66.9 °F - 63.0 °F 87% 29.94 in 7.0 mi North 5.8 mph - 0.00 in   Clear
9:54 PM 66.0 °F - 63.0 °F 90% 29.94 in 7.0 mi NNW 6.9 mph - N/A   Scattered Clouds
10:07 PM 66.2 °F - 62.6 °F 88% 30.00 in 6.0 mi NNW 6.9 mph - N/A   Mostly Cloudy
10:16 PM 66.2 °F - 62.6 °F 88% 29.99 in 6.0 mi North 6.9 mph - N/A   Mostly Cloudy
10:45 PM 66.2 °F - 62.6 °F 88% 29.99 in 7.0 mi NNW 9.2 mph - N/A   Mostly Cloudy
10:54 PM 66.0 °F - 63.0 °F 90% 29.92 in 7.0 mi NNW 9.2 mph - N/A   Overcast
11:54 PM 66.0 °F - 62.1 °F 87% 29.90 in 7.0 mi NNW 5.8 mph - N/A   Overcast